• en France
  • Liste des pays
  • À 7 jours
  • Température de l'eau
  • Carte satellitaire
  • Carte météo
  • Widgets météo
  • user-avatar
    Se connecter

    Météo par heure à Oborino

    Ce jour, 17 Juillet, Mardi

    Heure Température Précipitation Vent Pression Humidité
    00:00 +21°C° 0,4 mm 3 m/s 744 mmHg 90%
    01:00 +20°C° 0 mm 3 m/s 744 mmHg 91%
    02:00 +20°C° 0 mm 3 m/s 744 mmHg 93%
    03:00 +20°C° 0 mm 2 m/s 744 mmHg 95%
    04:00 +20°C° 0,2 mm 3 m/s 744 mmHg 95%
    05:00 +20°C° 0,2 mm 3 m/s 744 mmHg 94%
    06:00 +21°C° 0,2 mm 4 m/s 744 mmHg 93%
    07:00 +22°C° 0 mm 4 m/s 744 mmHg 86%
    08:00 +25°C° 0 mm 5 m/s 744 mmHg 79%
    09:00 +27°C° 0 mm 5 m/s 744 mmHg 70%
    10:00 +28°C° 0 mm 5 m/s 743 mmHg 65%
    11:00 +29°C° 0 mm 5 m/s 743 mmHg 60%
    12:00 +30°C° 0 mm 6 m/s 743 mmHg 55%
    13:00 +30°C° 0,1 mm 6 m/s 743 mmHg 55%
    14:00 +30°C° 0,1 mm 6 m/s 742 mmHg 54%
    15:00 +30°C° 0,1 mm 6 m/s 742 mmHg 54%
    16:00 +29°C° 0,1 mm 6 m/s 742 mmHg 58%
    17:00 +29°C° 0,1 mm 6 m/s 742 mmHg 62%
    18:00 +28°C° 0,1 mm 6 m/s 742 mmHg 66%
    19:00 +27°C° 0 mm 5 m/s 742 mmHg 71%
    20:00 +25°C° 0 mm 4 m/s 742 mmHg 76%
    21:00 +23°C° 0 mm 4 m/s 742 mmHg 81%
    22:00 +22°C° 0,3 mm 4 m/s 742 mmHg 84%
    23:00 +22°C° 0,3 mm 4 m/s 741 mmHg 88%

    Demain, 18 Juillet, Mercredi

    Heure Température Précipitation Vent Pression Humidité
    00:00 +21°C° 0,3 mm 4 m/s 741 mmHg 91%
    01:00 +21°C° 0 mm 4 m/s 741 mmHg 92%
    02:00 +20°C° 0 mm 4 m/s 741 mmHg 93%
    03:00 +20°C° 0 mm 4 m/s 741 mmHg 95%
    04:00 +20°C° 0 mm 4 m/s 741 mmHg 93%
    05:00 +20°C° 0 mm 4 m/s 741 mmHg 92%
    06:00 +20°C° 0 mm 5 m/s 741 mmHg 91%
    07:00 +21°C° 0 mm 5 m/s 741 mmHg 89%
    08:00 +21°C° 0 mm 5 m/s 740 mmHg 87%
    09:00 +21°C° 0 mm 5 m/s 740 mmHg 85%
    10:00 +22°C° 0,2 mm 6 m/s 740 mmHg 83%
    11:00 +22°C° 0,2 mm 6 m/s 740 mmHg 82%
    12:00 +23°C° 0,2 mm 6 m/s 740 mmHg 80%
    13:00 +22°C° 0,3 mm 6 m/s 740 mmHg 82%
    14:00 +22°C° 0,3 mm 6 m/s 740 mmHg 83%
    15:00 +22°C° 0,3 mm 5 m/s 739 mmHg 85%
    16:00 +22°C° 0,2 mm 5 m/s 739 mmHg 86%
    17:00 +22°C° 0,2 mm 5 m/s 739 mmHg 86%
    18:00 +22°C° 0,2 mm 5 m/s 739 mmHg 86%
    19:00 +21°C° 0,1 mm 5 m/s 739 mmHg 87%
    20:00 +21°C° 0,1 mm 5 m/s 739 mmHg 89%
    21:00 +21°C° 0,1 mm 5 m/s 739 mmHg 90%
    22:00 +21°C° 0,1 mm 5 m/s 739 mmHg 91%
    23:00 +20°C° 0,1 mm 5 m/s 739 mmHg 92%

    Après-demain, 19 Juillet, Jeudi

    Heure Température Précipitation Vent Pression Humidité
    00:00 +20°C° 0,1 mm 5 m/s 739 mmHg 92%
    01:00 +20°C° 0 mm 5 m/s 739 mmHg 92%
    02:00 +20°C° 0 mm 5 m/s 739 mmHg 92%
    03:00 +20°C° 0 mm 5 m/s 739 mmHg 92%
    04:00 +20°C° 0 mm 5 m/s 739 mmHg 92%
    05:00 +20°C° 0 mm 5 m/s 739 mmHg 91%
    06:00 +20°C° 0 mm 5 m/s 739 mmHg 90%
    07:00 +20°C° 0,2 mm 5 m/s 739 mmHg 90%
    08:00 +20°C° 0,2 mm 5 m/s 739 mmHg 90%
    09:00 +20°C° 0,2 mm 5 m/s 739 mmHg 90%
    10:00 +21°C° 0,2 mm 5 m/s 740 mmHg 88%
    11:00 +21°C° 0,2 mm 5 m/s 740 mmHg 86%
    12:00 +22°C° 0,2 mm 5 m/s 740 mmHg 85%
    13:00 +22°C° 0,5 mm 5 m/s 740 mmHg 83%
    14:00 +23°C° 0,5 mm 5 m/s 740 mmHg 81%
    15:00 +25°C° 0,5 mm 5 m/s 740 mmHg 79%
    16:00 +25°C° 0,7 mm 5 m/s 740 mmHg 81%
    17:00 +25°C° 0,7 mm 5 m/s 740 mmHg 83%
    18:00 +23°C° 0,7 mm 5 m/s 740 mmHg 85%
    19:00 +23°C° 0,4 mm 4 m/s 740 mmHg 88%
    20:00 +22°C° 0,4 mm 4 m/s 741 mmHg 90%
    21:00 +21°C° 0,4 mm 4 m/s 741 mmHg 93%
    22:00 +21°C° 0,1 mm 4 m/s 741 mmHg 94%
    23:00 +20°C° 0,1 mm 4 m/s 741 mmHg 94%

    20 Juillet, Vendredi

    Heure Température Précipitation Vent Pression Humidité
    00:00 +20°C° 0,1 mm 4 m/s 741 mmHg 95%
    01:00 +20°C° 0 mm 4 m/s 741 mmHg 96%
    02:00 +19°C° 0 mm 4 m/s 741 mmHg 96%
    03:00 +19°C° 0 mm 3 m/s 741 mmHg 97%
    04:00 +19°C° 0 mm 4 m/s 742 mmHg 97%
    05:00 +19°C° 0 mm 4 m/s 742 mmHg 96%
    06:00 +20°C° 0 mm 4 m/s 742 mmHg 95%
    07:00 +20°C° 0 mm 4 m/s 742 mmHg 94%
    08:00 +20°C° 0 mm 4 m/s 742 mmHg 93%
    09:00 +20°C° 0 mm 4 m/s 742 mmHg 92%
    10:00 +21°C° 0 mm 4 m/s 742 mmHg 89%
    11:00 +22°C° 0 mm 3 m/s 742 mmHg 85%
    12:00 +24°C° 0 mm 3 m/s 742 mmHg 82%
    13:00 +25°C° 0,2 mm 3 m/s 742 mmHg 78%
    14:00 +26°C° 0,2 mm 3 m/s 742 mmHg 75%
    15:00 +27°C° 0,2 mm 3 m/s 742 mmHg 72%
    16:00 +27°C° 0,3 mm 4 m/s 742 mmHg 73%
    17:00 +27°C° 0,3 mm 4 m/s 742 mmHg 74%
    18:00 +27°C° 0,3 mm 4 m/s 742 mmHg 76%
    19:00 +25°C° 0,4 mm 3 m/s 742 mmHg 81%
    20:00 +24°C° 0,4 mm 3 m/s 742 mmHg 86%
    21:00 +22°C° 0,4 mm 3 m/s 742 mmHg 91%
    22:00 +21°C° 0 mm 3 m/s 742 mmHg 92%
    23:00 +21°C° 0 mm 3 m/s 742 mmHg 94%

    21 Juillet, Samedi

    Heure Température Précipitation Vent Pression Humidité
    00:00 +20°C° 0 mm 3 m/s 741 mmHg 96%
    01:00 +20°C° 0,3 mm 2 m/s 741 mmHg 96%
    02:00 +20°C° 0,3 mm 2 m/s 741 mmHg 96%
    03:00 +20°C° 0,3 mm 2 m/s 741 mmHg 97%
    04:00 +20°C° 0 mm 2 m/s 741 mmHg 96%
    05:00 +20°C° 0 mm 2 m/s 742 mmHg 95%
    06:00 +20°C° 0 mm 2 m/s 742 mmHg 95%
    07:00 +23°C° 0 mm 2 m/s 742 mmHg 90%
    08:00 +24°C° 0 mm 3 m/s 742 mmHg 85%
    09:00 +26°C° 0 mm 3 m/s 742 mmHg 80%
    10:00 +27°C° 0,3 mm 3 m/s 742 mmHg 74%
    11:00 +28°C° 0,3 mm 3 m/s 742 mmHg 68%
    12:00 +29°C° 0,3 mm 3 m/s 742 mmHg 62%
    13:00 +30°C° 0,1 mm 3 m/s 742 mmHg 60%
    14:00 +30°C° 0,1 mm 3 m/s 742 mmHg 57%
    15:00 +31°C° 0,1 mm 3 m/s 742 mmHg 55%
    16:00 +30°C° 0,2 mm 3 m/s 742 mmHg 59%
    17:00 +30°C° 0,2 mm 3 m/s 742 mmHg 62%
    18:00 +29°C° 0,2 mm 3 m/s 742 mmHg 66%
    19:00 +28°C° 0,1 mm 2 m/s 742 mmHg 71%
    20:00 +26°C° 0,1 mm 2 m/s 742 mmHg 77%
    21:00 +25°C° 0,1 mm 2 m/s 742 mmHg 83%
    22:00 +24°C° 0 mm 2 m/s 742 mmHg 86%
    23:00 +23°C° 0 mm 2 m/s 742 mmHg 88%

    22 Juillet, Dimanche

    Heure Température Précipitation Vent Pression Humidité
    00:00 +21°C° 0 mm 2 m/s 742 mmHg 90%
    01:00 +21°C° 0 mm 2 m/s 742 mmHg 92%
    02:00 +21°C° 0 mm 2 m/s 742 mmHg 93%
    03:00 +20°C° 0 mm 2 m/s 742 mmHg 94%
    04:00 +21°C° 0 mm 2 m/s 742 mmHg 93%
    05:00 +21°C° 0 mm 2 m/s 742 mmHg 91%
    06:00 +21°C° 0 mm 3 m/s 742 mmHg 90%
    07:00 +24°C° 0 mm 3 m/s 742 mmHg 84%
    08:00 +25°C° 0 mm 3 m/s 742 mmHg 77%
    09:00 +27°C° 0 mm 3 m/s 742 mmHg 71%
    10:00 +28°C° 0,3 mm 4 m/s 742 mmHg 65%
    11:00 +29°C° 0,3 mm 4 m/s 742 mmHg 60%
    12:00 +30°C° 0,3 mm 5 m/s 742 mmHg 54%
    13:00 +32°C° 0,1 mm 5 m/s 742 mmHg 53%
    14:00 +32°C° 0,1 mm 5 m/s 741 mmHg 52%
    15:00 +32°C° 0,1 mm 5 m/s 741 mmHg 50%
    16:00 +32°C° 0,1 mm 4 m/s 741 mmHg 53%
    17:00 +31°C° 0,1 mm 3 m/s 741 mmHg 56%
    18:00 +30°C° 0,1 mm 3 m/s 741 mmHg 59%
    19:00 +29°C° 0,5 mm 3 m/s 741 mmHg 66%
    20:00 +27°C° 0,5 mm 2 m/s 741 mmHg 73%
    21:00 +25°C° 0,5 mm 2 m/s 741 mmHg 80%
    22:00 +24°C° 0,8 mm 2 m/s 741 mmHg 84%
    23:00 +24°C° 0,8 mm 2 m/s 741 mmHg 88%
    Voir plus